Regional Weather Roundup
Issued by NWS Charleston, SC

Home | Current Version | Previous Version | Text Only | Print | Product List | Glossary On
Versions: 1 2 3 4 5 6 7 8 9 10 11 12 13 14 15 16 17 18 19 20 21 22 23 24 25 26 27 28 29 30 31 32 33 34 35 36 37 38 39 40 41 42 43 44 45 46 47 48 49 50
000
ASUS42 KCHS 180225
RWRCHS

REGIONAL WEATHER ROUNDUP
NATIONAL WEATHER SERVICE CHARLESTON SC
1000 PM EDT WED SEP 17 2014

NOTE: "FAIR" INDICATES FEW OR NO CLOUDS BELOW 12,000 FEET WITH NO
SIGNIFICANT WEATHER AND/OR OBSTRUCTIONS TO VISIBILITY.

NOT ALL STATIONS ARE QUALITY CONTROLLED BY THE NATIONAL
WEATHER SERVICE. USE DATA WITH CAUTION...ESPECIALLY
DEWPOINT OBSERVATIONS.

SCZ027-030-031-034>040-042>050-180300-
...SOUTH CAROLINA...

CITY           SKY/WX    TMP DP  RH WIND       PRES   REMARKS
N CHARLESTON   PTCLDY    75  68  78 N3        29.92R
WATERFRONT PRK   N/A     77 N/A N/A N6          N/A
FORT JOHNSON   NOT AVBL
MOUNT PLEASANT MOCLDY    73  72  94 CALM      29.92R
JOHNS ISLAND   CLEAR     73  73 100 CALM      29.91S
PINOPOLIS        N/A     77  70  78 CALM      29.84S
MONCKS CORNER    N/A     70  70 100 CALM      29.92S FOG
SUMMERVILLE    FAIR      68  68 100 CALM      29.93R
BEAUFORT MCAS  MOCLDY    71  70  96 S5        29.89F
BEAUFORT ARPT  FAIR      73  73 100 SW5       29.89R
HILTON HEAD IS CLOUDY    75  75 100 CALM      29.91F FOG
GEORGETOWN     NOT AVBL
WALTERBORO     CLEAR     68 N/A N/A CALM      29.93S
ORANGEBURG     MOCLDY    69  67  93 CALM      29.93R
BARNWELL       DRIZZLE   72  70  94 CALM      29.94R
AIKEN          FAIR      70  70 100 E3        29.97S
MANNING        FAIR      72 N/A N/A CALM      29.92R
KINGSTREE      NOT AVBL
COLUMBIA       MOCLDY    73  68  84 CALM      29.93R
SUMTER         CLEAR     71  66  84 NW1       29.91R
FLORENCE       CLEAR     72  68  87 CALM      29.91S
MYRTLE BEACH   PTCLDY    75  70  83 NW8       29.90F
N MYRTLE BEACH CLEAR     72  69  90 CALM      29.90S

$$

GAZ063-065-086>088-099>101-113>116-118-119-134-136>141-150-180300-
...GEORGIA...

CITY           SKY/WX    TMP DP  RH WIND       PRES   REMARKS
SAVANNAH ARPT  CLOUDY    74  71  91 CALM      29.91R
HUNTER AAF     PTCLDY    77  75  92 E5        29.89R
FORT STEWART   LGT RAIN  75  72  88 E1        29.90R
STATESBORO     NOT AVBL
SYLVANIA       LGT RAIN  73  72  95 CALM      29.93S
CLAXTON        FAIR      73  73 100 CALM      29.91R
THOMSON        CLEAR     73  73 100 CALM      29.97S
AUGUSTA-BUSH   PTCLDY    70  69  97 CALM      29.92R
AUGUSTA-DANIEL PTCLDY    73  70  90 E7        29.94R
SWAINSBORO     FAIR      77  72  83 E3        29.93R
VIDALIA        MOCLDY    77  72  83 CALM      29.91R
ALMA           PTCLDY    75  67  76 SE5       29.91R
WAYCROSS       MOCLDY    74  71  89 NE6       29.92R
JESUP          FAIR      75  72  88 CALM      29.90R
BRUNSWICK      PTCLDY    73  72  94 CALM      29.91R
SAINT SIMONS   CLEAR     79  72  79 SE5       29.90R

$$

SCZ027-028-034-036>038-045-046-048>050-GAZ119-141-180300-
...LAKE AND SUPPLEMENTAL COASTAL OBSERVATIONS...

STATION/POSITION TIME  TEMP    WIND        PRES    WAVE   SWELL
                       AIR SEA DIR/SP/G            HT/PER HT/PER/DIR
                 (UTC) (F)     (DEG/KT/KT) (MB)    (FT/S) (FT/S/D)
UPR LAKE MARION  NOT AVBL
WINYAH BAY       0200   75     260/  2     1012.0S
LAKE MURRAY      0100   71      CALM  /  3 1012.9R
ACE BASIN NERRS  0200   74      10/  1     1012.0S
FORT PULASKI     0200   78     110/  4/  4 1012.9R
SAPELO ISLAND    0200   78     130/  3     1013.0S

$$

ANZ835-935-AMZ111-154-330-350-352-354-374-450-454-472-180300-
...C-MAN AND BUOY OBSERVATIONS...

STATION/POSITION TIME  TEMP    WIND        PRES    WAVE   SWELL
                       AIR SEA DIR/SP/G            HT/PER HT/PER/DIR
                 (UTC) (F)     (DEG/KT/KT) (MB)    (FT/S) (FT/S/D)
FOLLY BEACH CMAN 0200   77     320/  3/  4 1013.2R
BUOY 41004       0200   81 83   10/  4/  6 1012.4R   3/13   3/13
BUOY 41008       0200   82 84  120/  6/  8 1012.7R   3/15   3/100/15
5E ST. MARYS GA  0200      84                N/A     3/15   3/110/15
FRYING PAN BUOY  NOT AVBL
BUOY 41025       0200   75      30/ 16/ 19 1012.4R   7/ 7   3/ 90/12
CAPE LOOKOUT NC  0200   76      50/ 20/ 21 1013.0R
BUOY 41002       0143   78 82   10/  8/ 10 1011.3R   6/14   5/ 80/14
BUOY 41010       0200   82 85  300/  8/ 12 1012.3R   5/13   5/ 80/13
BUOY 41012       NOT AVBL
ST AUGUSTINE FL  0200   78     230/  2/  3 1013.7R
CAPERS NEARSHORE 0100   78      CALM  /  4   N/A
FRIPP NEARSHORE  NOT AVBL


$$


USA.gov is the U.S. government's official web portal to all federal, state and local government web resources and services.